sat.trackr.live / text

‹ back to catalog

STARLINK-4022

NORAD 52629 · 2022-052AH

PAYLOAD ACTIVE UNKNOWN

§ Identity

Operator
Country
US
Launch date
2022-05-14
Launch site
AFETR
Launch vehicle
Mass (kg)
RCS (m²)

Purposes: comms

External: N2YO · Heavens-Above · Gunter

§ Orbital elements

Epoch: 2026-09-20T04:31:12.902592Z

Period
95.39 min
Inclination
53.1603°
Eccentricity
0.0001494
Mean motion
15.09524450 rev/d
Perigee alt
536.6 km
Apogee alt
538.7 km
Semi-major
6,915.8 km
B*
5.2181e-3
RAAN
115.2749°
Arg perigee
70.6371°
Mean anomaly
289.4782°
Rev number
24,035

§ Raw data

STARLINK-40221 52629U 22052AH  26263.18834378  .00085356  00000+0  52181-2 0  99912 52629  53.1603 115.2749 0001494  70.6371 289.4782 15.09524450240354

JSON: /api/v1/satellites/52629 · /tle

For live sub-satellite position, see the globe view (requires WebGL).

§ Visibility from observer

Set your observer location to see the next 7 days of passes ≥ 10°. The values pass through the URL so the page stays shareable.

No JS? Fill the form by hand. The geolocation button needs JavaScript.